Simultaneous Nadir Overpasses (SNOs) Predictions

Prediction of SNOs between AQUA and METOP-B Satellite Orbit:

Table of predicted SNOs for the next 14.0 days since TLE Epoch: 2/13/2016
Index Date (AQUA) Time (AQUA) Lat,Lon (AQUA) SZA (AQUA ) Date (METOP-B) Time (METOP-B) Lat,Lon (METOP-B) SZA (METOP-B ) Distance(km) Time Diff (sec)
1 02/15/2016 13:08:48 73.85, -23.02 86.72 02/15/2016 13:08:18 73.85, -23.00 86.73 1.11 30
2 02/15/2016 13:58:15 -73.92, 144.45 93.22 02/15/2016 13:58:58 -73.93, 144.51 93.22 2.03 43
3 02/18/2016 08:43:06 73.85, 43.39 85.75 02/18/2016 08:42:38 73.83, 43.36 85.74 2.35 28
4 02/18/2016 09:32:33 -73.92,-149.13 94.19 02/18/2016 09:33:18 -73.91,-149.12 94.21 1.45 45
5 02/21/2016 04:17:24 73.84, 109.85 84.73 02/21/2016 04:16:58 73.86, 109.84 84.76 2.90 26
6 02/21/2016 05:06:51 -73.91, -82.66 95.22 02/21/2016 05:07:39 -73.90, -82.76 95.23 3.16 48
7 02/23/2016 23:51:42 73.85, 176.25 83.71 02/23/2016 23:51:19 73.85, 176.20 83.72 1.62 23
8 02/24/2016 00:41:09 -73.92, -16.26 96.23 02/24/2016 00:41:59 -73.93, -16.27 96.23 1.37 50
9 02/26/2016 18:36:19 -73.24, 76.36 97.99 02/26/2016 18:35:12 -73.19, 73.78 97.90 83.02 67
10 02/26/2016 19:25:59 73.90,-117.42 82.71 02/26/2016 19:25:38 73.88,-117.32 82.70 3.65 21
11 02/26/2016 20:15:25 -73.91, 50.20 97.29 02/26/2016 20:16:19 -73.91, 50.10 97.29 3.35 54




NCC Satellite Simultaneous Nadir Overpasses (SNOs) Prediction Service
